Weather History for Rio De Janeiro Aeroporto, Brazil

Change the Weather History Date:

Friday, November 8, 2013

  Actual Average Record
Temperature  
Mean Temperature 72 °F -  
Max Temperature 77 °F 80 °F - ()
Min Temperature 68 °F 70 °F - ()
Cooling Degree Days 8    
Growing Degree Days 22 (Base 50)    
Moisture  
Dew Point 68 °F    
Average Humidity 85    
Maximum Humidity 100    
Minimum Humidity 69    
Precipitation  
Precipitation 0.00 in - - ()
Sea Level Pressure  
Sea Level Pressure 29.96 in    
Wind  
Wind Speed 6 mph ()    
Max Wind Speed 13 mph    
Max Gust Speed -    
Visibility 4.8 miles    
Events      
T = Trace of Precipitation, MM = Missing Value Source: Averaged Metar Reports

Daily Weather History Graph

Daily Weather History Graph

Search for Another Location

Airport:

Trip Planner

Search our weather history database for the weather conditions in past years. The results will help you decide how hot, cold, wet, or windy it might be!

Date:

Astronomy

Nov. 08, 2013 Rise Set
Actual Time 6:03 AM BRST 7:09 PM BRST
Civil Twilight 5:39 AM BRST 7:33 PM BRST
Nautical Twilight 5:11 AM BRST 8:01 PM BRST
Astronomical Twilight 4:42 AM BRST 8:30 PM BRST
Moon 10:51 AM BRST (11/8) No Moon Set
Length of Visible Light 13h 53m
Length of Day
13h 06m
Waxing Crescent, 31% of the Moon is Illuminated
Nov 8
Waxing Crescent
Nov 10
First Quarter
Nov 17
Full
Nov 25
Last Quarter
Dec 2
New

Hourly Weather History & Observations

Time (BRST) Temp. Dew Point Humidity Pressure Visibility Wind Dir Wind Speed Gust Speed Precip Events Conditions
5:15 AM 68.0 °F 68.0 °F 100% 29.98 in 4.3 mi NNW 4.6 mph - N/A   Mostly Cloudy
6:00 AM 69.8 °F 68.0 °F 94% 29.98 in 2.5 mi SSE 1.2 mph - N/A   Mostly Cloudy
7:00 AM 68.0 °F 68.0 °F 100% 29.98 in 2.5 mi East 1.2 mph - N/A   Mostly Cloudy
8:00 AM 69.8 °F 68.0 °F 94% 30.01 in 2.5 mi NNW 3.5 mph - N/A   Mostly Cloudy
9:00 AM 71.6 °F 69.8 °F 94% 30.01 in 2.5 mi North 5.8 mph - N/A   Mostly Cloudy
10:00 AM 73.4 °F 68.0 °F 83% 30.01 in 2.8 mi NNE 3.5 mph - N/A   Mostly Cloudy
11:00 AM 75.2 °F 68.0 °F 78% 30.01 in 2.8 mi SSE 6.9 mph - N/A   Mostly Cloudy
11:15 AM 75.2 °F 68.0 °F 78% 30.01 in 3.7 mi SE 8.1 mph - N/A   Mostly Cloudy
12:00 PM 75.2 °F 66.2 °F 73% 29.98 in 4.3 mi SSE 9.2 mph - N/A   Scattered Clouds
1:00 PM 75.2 °F 66.2 °F 73% 29.98 in 5.0 mi SE 10.4 mph - N/A   Scattered Clouds
2:00 PM 75.2 °F 68.0 °F 78% 29.95 in 5.0 mi SE 12.7 mph - N/A   Scattered Clouds
3:00 PM 77.0 °F 66.2 °F 69% 29.92 in 6.2 mi SSE 10.4 mph - N/A   Scattered Clouds
4:00 PM 75.2 °F 66.2 °F 73% 29.89 in 6.2 mi South 11.5 mph - N/A   Mostly Cloudy
5:00 PM 73.4 °F 66.2 °F 78% 29.89 in 6.2 mi South 12.7 mph - N/A   Mostly Cloudy
6:00 PM 73.4 °F 66.2 °F 78% 29.92 in 6.2 mi South 11.5 mph - N/A   Mostly Cloudy
7:00 PM 73.4 °F 68.0 °F 83% 29.92 in 6.2 mi South 10.4 mph - N/A   Mostly Cloudy
7:30 PM 71.6 °F 68.0 °F 88% 29.92 in 6.2 mi South 9.2 mph - N/A   Mostly Cloudy
8:00 PM 71.6 °F 69.8 °F 94% 29.92 in 6.2 mi South 8.1 mph - N/A   Mostly Cloudy
9:00 PM 71.6 °F 69.8 °F 94% 29.95 in 6.2 mi SSE 6.9 mph - N/A   Mostly Cloudy
10:00 PM 71.6 °F 69.8 °F 94% 29.95 in 6.2 mi SSE 5.8 mph - N/A   Mostly Cloudy
11:00 PM 71.6 °F 69.8 °F 94% 29.98 in 6.2 mi South 5.8 mph - N/A   Mostly Cloudy